Rbgn^[z[y[W
メイン
   新天体発見情報
     Comet P/2020 G1 (Pimentel)
投稿するにはまず登録を

スレッド表示 | 新しいものから 前のトピック | 次のトピック | 下へ
投稿者 スレッド
佐藤裕久
投稿日時: 2020-5-5 14:39
モデレータ
登録日: 2005-6-12
居住地: 日本
投稿: 2505
オンライン
Comet P/2020 G1 (Pimentel)

C. Jacquesは、4月13.9日UT、SONEARサーベイ(Y00)で得られた露出
から彗星を発見したと通報した。Eduardo Pimentelによって13"の非常に集光したコマと
p.a.91°に向かって12"の尾がある旨の彗星機能が後に伝達された。
小惑星センターのPCCP webpageに公表後、佐藤英貴氏(東京都文京区, iTelescope天文台, 
4月14.37日UT、20秒露出9枚のスタック, 0.51-m f/6.8 アストログラフ, Siding Spring, 
NSW, 遠隔操作:強く集光した50" の外側のコマと、p.a. 80°に向かって20"の尾を見つけた。
26".2の円形範囲で測定した光度は14.9等であった)らCCD位置観測者によって彗星状と観測
された。

彗星機能の追加報告は次の通り:

OC   Date        Reporter           Coma    Tail    PA          Exposures
Q62  2020-04-14  H. Sato             50"     20"    80          9x20s
Q62  2020-04-14  M. Suzuki           13"     21"    95          5x30s
Q62  2020-04-14  N. Paul             10"     21"    80          5x60s
K61  2020-04-14  M. Adamovsky        25"                        55x6s
A77  2020-04-14  F. Kugel                    10"    90
J95  2020-04-14  P. Birtwhistle      18"     26"    90
Q62  2020-04-15  E. Guido            15"     20"    90
Q62  2020-04-15  B. Lutkenhoner       8"     13"   100
204  2020-04-15  L. Buzzi             9"     20"   105
L27  2020-04-15  G. Galli             7"     15"    95
J95  2020-04-15  P. Birtwhistle      18"     26"    85
587  2020-04-15  P. Sicoli            3"     19"    85
G40  2020-04-15  N. Paul             13"     15"    90          5x50s
X74  2020-04-15  L. S. Amaral        23"                        3x30s
850  2020-04-16  D. T. Durig         20"     13"   70-80        40x10s
I52  2020-04-16  R. A. Kowalski      30"    240"   83-85
N55  2020-06-16  D. W. E. Green      10"            70

発見位置は次のとおり、

     2020 UT             R.A. (2000) Decl.       Mag.   Observer
     Apr. 13.89850    4 49 33.25   + 2 07 45.2   15.2   Jacques
          13.90579    4 49 37.13   + 2 07 39.7   15.5     "
          13.91317    4 49 41.01   + 2 07 33.7   15.2     "

MPCの楕円軌道要素と位置推算表は次のとおり、

Orbital elements:
    P/2020 G1 (Pimentel)                                                        
Epoch 2020 Mar. 12.0 TT = JDT 2458920.5                                         
T 2020 Mar. 17.82341 TT                                 Rudenko                 
q   0.5112117            (2000.0)            P               Q                  
n   0.11408692     Peri.  208.93555     +0.04813344     -0.95993314             
a   4.2102912      Node   239.56472     +0.96695093     +0.11406253             
e   0.8785804      Incl.   18.67413     +0.25037786     -0.25596506             
P   8.64                                                                        
From 155 observations 2020 Apr. 13-17, mean residual 0".8.                      
                                                                                
    P/2020 G1 (Pimentel)                                                        
Epoch 2028 July 8.0 TT = JDT 2461960.5                                          
T 2028 July 26.20463 TT                                 Rudenko                 
q   0.5072537            (2000.0)            P               Q                  
n   0.11810617     Peri.  208.83954     +0.04975698     -0.95991411             
a   4.1142213      Node   239.56182     +0.96672738     +0.11567493             
e   0.8767072      Incl.   18.65915     +0.25092314     -0.25531200             
P   8.35                                                                        
From 147 observations 2020 Apr. 13-17, mean residual 0".7.                      
                                                                                
    P/2020 G1 (Pimentel)                                                        
Epoch 2028 Nov. 5.0 TT = JDT 2462080.5                                          
T 2028 Nov. 1.27348 TT                                  Rudenko                 
q   0.5080607            (2000.0)            P               Q                  
n   0.11440205     Peri.  208.96341     +0.04908918     -0.95990797             
a   4.2025561      Node   239.48354     +0.96696357     +0.11487667             
e   0.8791067      Incl.   18.68461     +0.25014336     -0.25569521             
P   8.62                                                                        
From 155 observations 2020 Apr. 13-17, mean residual 0".8.                      
                                                                                
    P/2020 G1 (Pimentel)                                                        
Epoch 2020 May 31.0 TT = JDT 2459000.5                                          
T 2020 Mar. 17.82288 TT                                 Rudenko                 
q   0.5112175            (2000.0)            P               Q                  
n   0.11409788     Peri.  208.93727     +0.04813258     -0.95993429             
a   4.2100217      Node   239.56310     +0.96695322     +0.11405851             
e   0.8785713      Incl.   18.67418     +0.25036919     -0.25596253             
P   8.64                                                                        
From 155 observations 2020 Apr. 13-17, mean residual 0".8.                      
                                                                                
Ephemeris:
Date    TT    R. A. (2000) Decl.     Delta      r    Elong.  Phase   m1
2020 03 18    01 36 57.4 +05 38 34   1.1171  0.5112    27.2    63.0  14.3
...
2020 04 02    03 16 37.1 +04 29 46   0.8414  0.6116    37.6    85.4  14.5
...
2020 04 10    04 17 20.3 +03 00 06   0.7361  0.7168    45.6    87.2  14.9
...
2020 04 16    05 07 35.0 +01 37 48   0.6852  0.8049    52.9    84.3  15.2
2020 04 17    05 16 17.8 +01 23 16   0.6793  0.8200    54.3    83.5  15.3
2020 04 18    05 25 05.0 +01 08 35   0.6742  0.8352    55.6    82.7  15.4
...
2020 04 24    06 18 37.7 -00 20 24   0.6605  0.9271    63.7    76.6  15.8
...
2020 05 02    07 27 55.8 -02 10 45   0.6867  1.0503    73.9    67.2  16.4
...
2020 05 17    09 13 08.0 -04 40 13   0.8492  1.2768    86.2    52.2  17.7

(MPEC 2020-H06、CBET 4754)

スレッド表示 | 新しいものから 前のトピック | 次のトピック | トップ

投稿するにはまず登録を
 
© 1999 Tsutomu Seki.